[[{"header":{"parameterUnit":"m.s-1","parameterCategory":1,"la1":30.2991,"la2":30.254,"lo1":-89.0895,"lo2":-89.0444,"dy":0.0017,"dx":0.0017,"nx":28,"ny":28,"refTime":"2023-08-04T03:00:00:Z","depth":0,"parameterNumber":2,"parameterNumberName":"U-component_of_WINDS"},"data":[0,0,0,0,0,0,0,0,0,0,0,0,0,0,0,0,0,0,0,0,0,0,0,0,0,0,0,0,0,0,0,0,0,0,0,0,0,0,0,0,0,0,0,0,0,0,0,0,0,0,0,0,0,0,0,0,0,0,5.7221,5.7222,0,5.7348,5.735,5.7351,5.7286,5.7283,5.7279,5.7276,5.7405,5.7412,5.7418,0,0,0,0,0,0,0,0,0,0,0,0,0,5.6918,5.6924,5.7221,5.7222,5.7224,5.7348,5.735,5.7351,5.7287,5.7283,5.7278,5.7275,5.7403,5.7411,5.7419,0,0,0,0,0,0,0,0,0,0,0,0,0,5.7048,5.6926,5.722,5.7207,5.7207,5.7348,5.735,5.7352,5.7287,5.7282,5.7277,5.7273,5.7401,5.741,5.742,5.7582,0,0,5.745,5.7454,0,0,0,0,0,0,0,0,5.7041,5.7059,5.7207,5.7208,5.7208,5.7296,5.729,5.7429,5.7289,5.7257,5.7276,5.727,5.7373,5.7385,5.742,5.7588,5.7593,5.7451,5.7457,5.7461,5.7464,0,0,0,0,0,0,0,5.7032,5.7053,5.7271,5.7209,5.721,5.7193,5.7206,5.7316,5.7342,5.7259,5.7255,5.7271,5.7372,5.741,5.7422,5.7595,5.7451,5.746,5.7466,5.7469,5.7898,5.7903,0,0,0,0,0,0,5.7024,5.7046,5.7267,5.7275,5.711,5.7202,5.7217,5.7273,5.734,5.7346,5.7275,5.7267,5.7396,5.7411,5.7427,5.7617,5.7461,5.747,5.7476,5.7892,5.7899,5.7905,0,0,0,0,0,0,5.7017,5.7044,5.7262,5.7159,5.7186,5.7213,5.7276,5.7278,5.7316,5.7352,5.7356,5.7309,5.7393,5.7413,5.7543,5.7621,5.7475,5.7484,5.7886,5.7895,5.7902,5.8001,0,0,0,0,0,0,5.7009,5.7042,5.7105,5.7161,5.7192,5.7377,5.7281,5.7284,5.7333,5.7325,5.7385,5.7391,5.739,5.7528,5.7553,5.7632,5.7492,5.7879,5.789,5.7899,5.7991,5.8012,5.8029,0,0,0,0,0,5.6998,5.7128,5.7108,5.7135,5.7271,5.7382,5.7399,5.7396,5.734,5.7402,5.7425,5.7389,5.7609,5.7542,5.7569,5.7652,5.7874,5.7887,5.7899,5.7982,5.8008,5.8029,0,0,0,0,0,0,5.7081,5.7136,5.7114,5.7266,5.732,5.7371,5.7449,5.7424,5.7494,5.7483,5.7476,5.749,5.7624,5.7652,5.7577,5.781,5.7733,5.7751,5.7787,5.7811,5.783,5.7819,5.75,0,0,0,0,0,5.7116,5.7203,5.7246,5.7376,5.7404,5.7422,5.7471,5.7464,5.7519,5.7541,5.7573,5.7628,5.7708,5.7762,5.7839,5.7995,5.8006,5.8065,5.8085,5.81,5.8115,5.8196,5.8222,5.7945,5.7945,5.7945,0,0,5.7191,5.7232,5.7287,5.7394,5.7434,5.7522,5.7442,5.7539,5.7604,5.7556,5.7679,5.7705,5.7765,5.7908,5.7973,5.7935,5.8194,5.8116,5.8128,5.8135,5.8211,5.8237,5.8261,5.7954,5.7952,5.7951,0,0,5.7371,5.7413,5.7523,5.7566,5.7628,5.7639,5.7665,5.772,5.7735,5.7859,5.7824,5.79,5.8041,5.8084,5.8124,5.8319,5.8286,5.8344,5.8443,5.8522,5.8544,5.8563,5.8629,5.8653,5.8359,5.836,5.836,0,5.7456,5.7588,5.7584,5.7683,5.7729,5.769,5.7801,5.7842,5.7926,5.7958,5.7915,5.8088,5.8126,5.8277,5.8324,5.8359,5.8387,5.8336,5.8541,5.8561,5.8578,5.8641,5.8666,5.8366,5.8365,5.8365,5.8364,0,5.7687,5.7779,5.7861,5.7943,5.7999,5.8104,5.8113,5.817,5.8158,5.8173,5.8298,5.8342,5.8425,5.8461,5.8451,5.861,5.8584,5.8542,5.8463,5.8611,5.8669,5.8694,5.8375,5.8373,5.8371,5.8369,0,0,5.7923,5.7999,5.8029,5.8063,5.8129,5.8199,5.8301,5.8382,5.8429,5.8489,5.8572,5.8691,5.8651,5.8697,5.8691,5.8761,5.8907,5.8709,5.871,5.8741,5.908,5.9109,5.9137,5.8887,5.8892,5.8896,5.9074,0,5.8104,5.8283,5.828,5.8445,5.8528,5.8491,5.8579,5.8627,5.8644,5.8715,5.8733,5.8816,5.876,5.8786,5.8854,5.8875,5.8974,5.8863,5.8962,5.8966,5.8945,5.9168,5.92,5.9365,5.9097,5.9101,5.9104,0,5.8341,5.8406,5.8579,5.8628,5.8663,5.8742,5.8815,5.8885,5.8938,5.8945,5.8995,5.8978,5.9079,5.9,5.9137,5.9061,5.9102,5.9118,5.9125,5.9131,5.9041,5.9177,5.9418,5.9442,5.914,5.9137,5.9135,0,5.849,5.8622,5.8741,5.8772,5.8835,5.8891,5.8919,5.8967,5.9015,5.9079,5.9109,5.9184,5.9224,5.9282,5.9284,5.9227,5.9422,5.9343,5.9428,5.9427,5.9468,5.9465,5.9716,5.9501,5.95,5.95,5.9499,0,5.8691,5.8797,5.8808,5.8881,5.8998,5.8994,5.9109,5.9132,5.9175,5.9251,5.9224,5.9295,5.9296,5.9368,5.9371,5.9482,5.9502,5.9508,5.9507,5.9508,5.9507,5.9533,5.952,5.9506,5.9505,5.9504,5.9502,0,5.8877,5.8889,5.9015,5.9063,5.9078,5.9161,5.9202,5.927,5.9284,5.9379,5.9401,5.9422,5.9506,5.9514,5.9612,5.9613,5.9746,5.9735,5.9728,5.9725,5.9807,5.9798,6.0081,6.0116,5.9881,5.9883,5.9885,0,5.9003,5.9083,5.9139,5.9187,5.9219,5.9298,5.9346,5.9345,5.9396,5.9461,5.9521,5.9601,5.9665,5.98,5.9823,5.9896,5.9884,5.9978,5.9895,5.9892,5.988,5.9874,5.988,5.9993,5.9996,5.9998,5.9999,0,5.9224,5.9225,5.9296,5.9368,5.9426,5.9483,5.9536,5.9577,5.9583,5.9641,5.9725,5.9775,5.9873,5.9952,6.0024,6.0051,6.0026,6.0026,6.0048,6.0049,6.004,6.0042,5.9768,6.0019,6.0017,6.0015,6.0014,6.0013,5.9381,5.9449,5.9498,5.9577,5.9616,5.9666,5.9732,5.9753,5.9823,5.9903,5.9898,5.999,6.0039,6.0132,6.0165,6.0236,6.0204,6.0238,6.0246,6.0254,6.026,6.0032,6.025,6.0249,6.0249,6.0248,6.0248,0,5.9597,5.9626,5.9699,5.9773,5.9835,5.9806,5.9863,5.9915,5.9997,6.0044,6.0107,6.0202,6.0279,6.0308,6.0381,6.0432,6.0422,6.0451,6.0446,6.0451,6.0286,6.0257,6.0458,6.0458,6.0458,6.0458,6.0458,6.0458,5.9716,5.9829,5.9836,5.9967,5.9995,6.0085,6.0119,6.0164,6.0202,6.0309,6.0372,6.039,6.043,6.0505,6.0573,6.0579,6.0606,6.064,6.0641,6.0485,6.0464,6.0443,6.0416,6.0647,6.0647,6.08,6.0801,6.0802]},{"header":{"parameterUnit":"m.s-1","parameterCategory":1,"la1":30.2991,"la2":30.254,"lo1":-89.0895,"lo2":-89.0444,"dy":0.0017,"dx":0.0017,"nx":28,"ny":28,"refTime":"2023-08-04T03:00:00:Z","depth":0,"parameterNumber":3,"parameterNumberName":"V-component_of_WINDS"},"data":[0,0,0,0,0,0,0,0,0,0,0,0,0,0,0,0,0,0,0,0,0,0,0,0,0,0,0,0,0,0,0,0,0,0,0,0,0,0,0,0,0,0,0,0,0,0,0,0,0,0,0,0,0,0,0,0,0,0,3.7043,3.7044,0,3.7104,3.7105,3.7106,3.7072,3.707,3.7069,3.7067,3.7126,3.713,3.7133,0,0,0,0,0,0,0,0,0,0,0,0,0,3.6893,3.6896,3.7043,3.7044,3.7045,3.7104,3.7105,3.7106,3.7072,3.707,3.7068,3.7066,3.7125,3.7129,3.7133,0,0,0,0,0,0,0,0,0,0,0,0,0,3.6956,3.6897,3.7043,3.7035,3.7035,3.7104,3.7105,3.7106,3.7073,3.707,3.7068,3.7065,3.7124,3.7129,3.7133,3.7213,0,0,3.7148,3.715,0,0,0,0,0,0,0,0,3.6953,3.6962,3.7036,3.7036,3.7036,3.7078,3.7074,3.7142,3.7073,3.7058,3.7067,3.7064,3.7112,3.7118,3.7135,3.7216,3.7218,3.7148,3.7151,3.7153,3.7154,0,0,0,0,0,0,0,3.6948,3.6959,3.7067,3.7037,3.7037,3.7027,3.7033,3.7087,3.7098,3.7059,3.7057,3.7065,3.7112,3.713,3.7136,3.7219,3.7148,3.7152,3.7155,3.7157,3.7366,3.7369,0,0,0,0,0,0,3.6945,3.6956,3.7065,3.7069,3.6987,3.7032,3.7039,3.7067,3.7098,3.71,3.7067,3.7063,3.7123,3.713,3.7138,3.7232,3.7153,3.7158,3.716,3.7364,3.7367,3.737,0,0,0,0,0,0,3.6942,3.6955,3.7063,3.7012,3.7025,3.7037,3.7069,3.707,3.7088,3.7104,3.7105,3.7084,3.7122,3.7131,3.7194,3.7233,3.716,3.7164,3.736,3.7365,3.7368,3.7421,0,0,0,0,0,0,3.6938,3.6954,3.6986,3.7013,3.7028,3.712,3.7071,3.7073,3.7097,3.7092,3.712,3.7122,3.712,3.7187,3.7199,3.7238,3.7168,3.7357,3.7362,3.7367,3.7416,3.7426,3.7435,0,0,0,0,0,3.6933,3.6998,3.6987,3.7001,3.7067,3.7122,3.7131,3.7128,3.71,3.7131,3.7141,3.7121,3.7227,3.7194,3.7207,3.7248,3.7354,3.7361,3.7367,3.7411,3.7424,3.7435,0,0,0,0,0,0,3.6974,3.7001,3.699,3.7066,3.7092,3.7116,3.7155,3.7142,3.7176,3.717,3.7165,3.7171,3.7237,3.7249,3.7212,3.7326,3.7286,3.7295,3.7316,3.7328,3.7338,3.7333,3.7172,0,0,0,0,0,3.6992,3.7036,3.7056,3.7121,3.7135,3.7143,3.7167,3.7163,3.7189,3.72,3.7214,3.7239,3.7278,3.7304,3.734,3.7417,3.7422,3.7452,3.7462,3.747,3.7477,3.7517,3.753,3.739,3.739,3.739,0,0,3.7029,3.705,3.7077,3.713,3.715,3.7194,3.7153,3.7201,3.7233,3.7207,3.7267,3.7279,3.7306,3.7376,3.7408,3.7388,3.7517,3.7477,3.7484,3.7487,3.7525,3.7538,3.755,3.7394,3.7393,3.7393,0,0,3.712,3.7141,3.7196,3.7217,3.7248,3.7252,3.7266,3.7292,3.7299,3.736,3.734,3.7378,3.7445,3.7465,3.7484,3.7581,3.7564,3.7593,3.7644,3.7683,3.7694,3.7704,3.7737,3.7749,3.7601,3.7601,3.7601,0,3.7163,3.7229,3.7226,3.7276,3.7299,3.7278,3.7334,3.7353,3.7394,3.741,3.7388,3.7471,3.7488,3.7562,3.7585,3.7602,3.7616,3.759,3.7693,3.7703,3.7712,3.7743,3.7756,3.7604,3.7604,3.7604,3.7603,0,3.7279,3.7325,3.7366,3.7407,3.7435,3.7487,3.7491,3.7519,3.7512,3.7518,3.758,3.76,3.7639,3.7657,3.765,3.7729,3.7716,3.7694,3.7654,3.7728,3.7758,3.777,3.7609,3.7608,3.7607,3.7606,0,0,3.7398,3.7436,3.7451,3.7468,3.75,3.7535,3.7585,3.7625,3.7649,3.7677,3.7718,3.7775,3.7755,3.7776,3.7772,3.7806,3.788,3.7779,3.778,3.7797,3.7967,3.7983,3.7997,3.7869,3.7872,3.7874,3.7964,0,3.7489,3.7579,3.7578,3.766,3.7702,3.7682,3.7726,3.7749,3.7757,3.7792,3.7799,3.7839,3.781,3.7822,3.7856,3.7864,3.7914,3.7858,3.7906,3.7908,3.7899,3.8013,3.803,3.8114,3.7976,3.7978,3.7979,0,3.7609,3.7642,3.7729,3.7753,3.7771,3.781,3.7846,3.788,3.7906,3.7908,3.7932,3.7922,3.7972,3.7931,3.7998,3.796,3.7979,3.7987,3.799,3.7993,3.7947,3.8018,3.8141,3.8154,3.7997,3.7996,3.7995,0,3.7685,3.7751,3.7811,3.7827,3.7858,3.7886,3.7899,3.7923,3.7946,3.7977,3.7992,3.8028,3.8047,3.8074,3.8073,3.8044,3.8141,3.81,3.8143,3.8143,3.8164,3.8163,3.8291,3.8178,3.8178,3.8178,3.8178,0,3.7787,3.7841,3.7846,3.7883,3.7942,3.7939,3.7997,3.8008,3.8028,3.8066,3.8051,3.8086,3.8083,3.8118,3.8118,3.8173,3.8182,3.8184,3.8183,3.8185,3.8185,3.8197,3.8191,3.8181,3.818,3.818,3.8179,0,3.7882,3.7888,3.7952,3.7976,3.7983,3.8025,3.8045,3.8079,3.8085,3.8132,3.8143,3.8152,3.8192,3.8194,3.8241,3.824,3.8307,3.83,3.8299,3.8297,3.834,3.8335,3.848,3.8498,3.8375,3.8376,3.8377,0,3.7946,3.7987,3.8015,3.804,3.8056,3.8096,3.8119,3.8118,3.8143,3.8175,3.8205,3.8244,3.8275,3.8341,3.835,3.8385,3.8378,3.8427,3.8383,3.8384,3.8378,3.8375,3.8378,3.8435,3.8436,3.8437,3.8438,0,3.806,3.806,3.8096,3.8133,3.8162,3.8191,3.8218,3.8238,3.8239,3.8268,3.831,3.8335,3.8382,3.8421,3.8455,3.8467,3.8453,3.8452,3.8463,3.8465,3.8462,3.8463,3.8321,3.8448,3.8447,3.8447,3.8446,3.8446,3.8141,3.8175,3.8201,3.8241,3.8261,3.8286,3.8319,3.8329,3.8364,3.8403,3.84,3.8446,3.8468,3.8513,3.8528,3.8563,3.8546,3.8563,3.8567,3.8571,3.8575,3.8458,3.8569,3.8569,3.8569,3.8568,3.8568,0,3.8252,3.8267,3.8304,3.8342,3.8373,3.8358,3.8386,3.8413,3.8454,3.8477,3.8508,3.8555,3.8592,3.8605,3.8641,3.8666,3.866,3.8675,3.8673,3.8676,3.8589,3.8575,3.8679,3.8679,3.8679,3.8679,3.8679,3.8679,3.8313,3.8371,3.8375,3.8442,3.8456,3.8502,3.8519,3.8542,3.856,3.8614,3.8645,3.8653,3.8672,3.8708,3.8741,3.8744,3.8757,3.8775,3.8775,3.8693,3.8682,3.8671,3.8658,3.8778,3.8778,3.8858,3.8859,3.8859]}]]